[[{"header":{"parameterUnit":"m.s-1","parameterCategory":1,"la1":30.2991,"la2":30.254,"lo1":-89.0895,"lo2":-89.0444,"dy":0.0017,"dx":0.0017,"nx":28,"ny":28,"refTime":"2025-08-06T21:00:00:Z","depth":0,"parameterNumber":2,"parameterNumberName":"U-component_of_WINDS"},"data":[0,0,0,0,0,0,0,0,0,0,0,0,0,0,0,0,0,0,0,0,0,0,0,0,0,0,0,0,0,0,0,0,0,0,0,0,0,0,0,0,0,0,0,0,0,0,0,0,0,0,0,0,0,0,0,0,0,0,-0.63,-0.63,0,-0.626,-0.6259,-0.6259,-0.6236,-0.6236,-0.6236,-0.6236,-0.6193,-0.6191,-0.619,0,0,0,0,0,0,0,0,0,0,0,0,0,-0.6355,-0.6354,-0.63,-0.63,-0.6299,-0.626,-0.6259,-0.6259,-0.6236,-0.6236,-0.6236,-0.6236,-0.6193,-0.6192,-0.619,0,0,0,0,0,0,0,0,0,0,0,0,0,-0.6325,-0.6354,-0.63,-0.6284,-0.6282,-0.626,-0.6259,-0.6259,-0.6236,-0.6236,-0.6236,-0.6236,-0.6193,-0.6192,-0.619,-0.6181,0,0,-0.6185,-0.6184,0,0,0,0,0,0,0,0,-0.6326,-0.6323,-0.6287,-0.6285,-0.6282,-0.6253,-0.6263,-0.6233,-0.6237,-0.6254,-0.6236,-0.6236,-0.6213,-0.6209,-0.6202,-0.6179,-0.6178,-0.6185,-0.6184,-0.6183,-0.6183,0,0,0,0,0,0,0,-0.6329,-0.6324,-0.6284,-0.6286,-0.6284,-0.6277,-0.6272,-0.6257,-0.6234,-0.6252,-0.625,-0.6246,-0.6211,-0.6204,-0.6201,-0.6177,-0.6185,-0.6183,-0.6182,-0.6182,-0.6143,-0.6143,0,0,0,0,0,0,-0.6334,-0.6326,-0.6286,-0.6283,-0.6305,-0.6276,-0.6271,-0.6263,-0.6234,-0.623,-0.6246,-0.6245,-0.6206,-0.6203,-0.6199,-0.6186,-0.6183,-0.6182,-0.6181,-0.6143,-0.6143,-0.6143,0,0,0,0,0,0,-0.6335,-0.633,-0.6287,-0.6304,-0.6298,-0.6275,-0.6266,-0.6262,-0.6254,-0.623,-0.6225,-0.6242,-0.6206,-0.6201,-0.6186,-0.6184,-0.6181,-0.6179,-0.6143,-0.6143,-0.6143,-0.6161,0,0,0,0,0,0,-0.6337,-0.6331,-0.6328,-0.6304,-0.6297,-0.6276,-0.6266,-0.6261,-0.6251,-0.625,-0.6225,-0.6221,-0.6206,-0.6188,-0.6184,-0.6182,-0.6178,-0.6143,-0.6143,-0.6143,-0.616,-0.6161,-0.6162,0,0,0,0,0,-0.6339,-0.6335,-0.6328,-0.6324,-0.6294,-0.6276,-0.6272,-0.6255,-0.6251,-0.6248,-0.6232,-0.6222,-0.6185,-0.6187,-0.6182,-0.6179,-0.6143,-0.6143,-0.6143,-0.616,-0.6161,-0.6162,0,0,0,0,0,0,-0.6359,-0.6331,-0.6324,-0.6312,-0.6297,-0.6272,-0.6267,-0.6257,-0.6242,-0.6241,-0.622,-0.6215,-0.6201,-0.6188,-0.6191,-0.6168,-0.6163,-0.6162,-0.6177,-0.6178,-0.6179,-0.6182,-0.6177,0,0,0,0,0,-0.6362,-0.6351,-0.6327,-0.6319,-0.6311,-0.6291,-0.6282,-0.6271,-0.6253,-0.6246,-0.6229,-0.6212,-0.6196,-0.6187,-0.6171,-0.6158,-0.6151,-0.6153,-0.6155,-0.6155,-0.6155,-0.6145,-0.6145,-0.6143,-0.6143,-0.6143,0,0,-0.6368,-0.6352,-0.6346,-0.6322,-0.6309,-0.6296,-0.6285,-0.6273,-0.6263,-0.6244,-0.6228,-0.6215,-0.6194,-0.6179,-0.6172,-0.6169,-0.6154,-0.6155,-0.6156,-0.6155,-0.6145,-0.6145,-0.6146,-0.6143,-0.6143,-0.6143,0,0,-0.6373,-0.636,-0.6351,-0.6338,-0.6317,-0.6303,-0.6301,-0.6278,-0.6269,-0.6253,-0.6238,-0.6225,-0.6199,-0.6185,-0.6174,-0.6171,-0.6161,-0.6167,-0.6172,-0.6163,-0.6163,-0.6163,-0.6161,-0.6161,-0.6166,-0.6166,-0.6166,0,-0.6383,-0.6365,-0.6348,-0.6336,-0.6325,-0.6308,-0.6298,-0.6285,-0.6261,-0.6253,-0.625,-0.6216,-0.6201,-0.6182,-0.6181,-0.6174,-0.6169,-0.617,-0.6165,-0.6165,-0.6164,-0.6162,-0.6162,-0.6167,-0.6167,-0.6167,-0.6167,0,-0.6377,-0.6364,-0.6359,-0.6337,-0.6325,-0.6315,-0.6295,-0.6285,-0.6274,-0.626,-0.6243,-0.6224,-0.6204,-0.6199,-0.6188,-0.6177,-0.6176,-0.6169,-0.6163,-0.6166,-0.6163,-0.6162,-0.6168,-0.6168,-0.6168,-0.6167,0,0,-0.6394,-0.6361,-0.636,-0.6348,-0.6324,-0.6313,-0.6301,-0.6282,-0.6273,-0.6256,-0.6245,-0.6222,-0.6216,-0.6203,-0.619,-0.6183,-0.618,-0.6176,-0.6176,-0.6177,-0.6166,-0.6171,-0.6171,-0.6173,-0.6173,-0.6173,-0.6167,0,-0.6395,-0.6373,-0.6356,-0.634,-0.6327,-0.631,-0.6299,-0.6282,-0.6268,-0.6254,-0.6239,-0.6223,-0.6216,-0.6208,-0.62,-0.6183,-0.6178,-0.6183,-0.6161,-0.616,-0.6166,-0.6169,-0.6175,-0.6171,-0.6167,-0.6166,-0.6166,0,-0.6393,-0.6377,-0.6359,-0.6335,-0.6329,-0.632,-0.63,-0.6287,-0.6267,-0.6258,-0.6243,-0.623,-0.6215,-0.621,-0.6188,-0.6191,-0.6181,-0.6171,-0.6171,-0.6168,-0.6163,-0.6166,-0.6169,-0.6168,-0.6165,-0.6165,-0.6165,0,-0.6405,-0.6379,-0.6365,-0.6356,-0.6328,-0.6322,-0.631,-0.629,-0.6278,-0.6261,-0.6253,-0.6234,-0.6223,-0.6207,-0.6188,-0.6187,-0.6167,-0.6162,-0.6158,-0.6158,-0.6154,-0.6155,-0.6156,-0.6149,-0.6149,-0.6149,-0.6149,0,-0.6407,-0.6397,-0.6371,-0.6362,-0.6349,-0.633,-0.6318,-0.6304,-0.6286,-0.6273,-0.6257,-0.6245,-0.6221,-0.6206,-0.6191,-0.6174,-0.6169,-0.616,-0.6156,-0.6161,-0.6162,-0.6154,-0.6153,-0.6149,-0.6149,-0.6149,-0.6149,0,-0.642,-0.6402,-0.6385,-0.636,-0.6353,-0.6345,-0.6322,-0.6312,-0.6297,-0.6281,-0.6276,-0.6253,-0.6234,-0.6213,-0.6187,-0.6177,-0.616,-0.6155,-0.6167,-0.6165,-0.6162,-0.6162,-0.6157,-0.6155,-0.6151,-0.6151,-0.6151,0,-0.6422,-0.6414,-0.6387,-0.6378,-0.6366,-0.6351,-0.634,-0.632,-0.6309,-0.6284,-0.6277,-0.6257,-0.624,-0.621,-0.619,-0.6169,-0.6163,-0.6163,-0.616,-0.6165,-0.6162,-0.6162,-0.6161,-0.6163,-0.6164,-0.6164,-0.6164,0,-0.6427,-0.6419,-0.6403,-0.6385,-0.6372,-0.6356,-0.6339,-0.6332,-0.6308,-0.6296,-0.6277,-0.6264,-0.6237,-0.6217,-0.6194,-0.6179,-0.6167,-0.6165,-0.6163,-0.6168,-0.6175,-0.617,-0.6169,-0.6165,-0.6165,-0.6165,-0.6165,-0.6165,-0.6434,-0.6425,-0.6405,-0.6388,-0.6374,-0.6358,-0.6347,-0.6331,-0.6315,-0.6292,-0.6281,-0.6262,-0.624,-0.6208,-0.6194,-0.6177,-0.6174,-0.6171,-0.617,-0.6169,-0.617,-0.6178,-0.6173,-0.6173,-0.6173,-0.6173,-0.6173,0,-0.6438,-0.6424,-0.6409,-0.6386,-0.6372,-0.6363,-0.6343,-0.6332,-0.6315,-0.6297,-0.628,-0.6257,-0.6237,-0.6215,-0.6193,-0.6184,-0.6177,-0.6179,-0.6179,-0.6175,-0.6175,-0.6179,-0.6184,-0.6184,-0.6184,-0.6184,-0.6184,-0.6184,-0.6438,-0.6423,-0.6412,-0.6388,-0.6374,-0.6355,-0.6345,-0.633,-0.6315,-0.629,-0.6274,-0.6259,-0.6239,-0.6215,-0.6196,-0.6189,-0.6182,-0.6184,-0.6176,-0.6177,-0.6176,-0.6175,-0.6178,-0.6183,-0.6183,-0.6178,-0.6178,-0.6178]},{"header":{"parameterUnit":"m.s-1","parameterCategory":1,"la1":30.2991,"la2":30.254,"lo1":-89.0895,"lo2":-89.0444,"dy":0.0017,"dx":0.0017,"nx":28,"ny":28,"refTime":"2025-08-06T21:00:00:Z","depth":0,"parameterNumber":3,"parameterNumberName":"V-component_of_WINDS"},"data":[0,0,0,0,0,0,0,0,0,0,0,0,0,0,0,0,0,0,0,0,0,0,0,0,0,0,0,0,0,0,0,0,0,0,0,0,0,0,0,0,0,0,0,0,0,0,0,0,0,0,0,0,0,0,0,0,0,0,-0.0479,-0.0478,0,-0.0383,-0.0382,-0.0381,-0.0336,-0.0336,-0.0336,-0.0336,-0.0243,-0.0241,-0.0239,0,0,0,0,0,0,0,0,0,0,0,0,0,-0.0627,-0.0625,-0.0479,-0.0478,-0.0476,-0.0384,-0.0382,-0.0381,-0.0336,-0.0336,-0.0336,-0.0336,-0.0244,-0.0241,-0.0238,0,0,0,0,0,0,0,0,0,0,0,0,0,-0.0551,-0.0624,-0.0479,-0.0442,-0.0438,-0.0384,-0.0382,-0.0381,-0.0336,-0.0336,-0.0336,-0.0336,-0.0245,-0.0242,-0.0238,-0.0215,0,0,-0.0227,-0.0225,0,0,0,0,0,0,0,0,-0.0555,-0.0545,-0.0449,-0.0445,-0.044,-0.0371,-0.0401,-0.0325,-0.0336,-0.0375,-0.0336,-0.0336,-0.0286,-0.0279,-0.0261,-0.021,-0.0206,-0.0226,-0.0224,-0.0222,-0.0221,0,0,0,0,0,0,0,-0.056,-0.0549,-0.0441,-0.0448,-0.0442,-0.0433,-0.0422,-0.0386,-0.0332,-0.0371,-0.0368,-0.0357,-0.0284,-0.0265,-0.0259,-0.0205,-0.0226,-0.0223,-0.0221,-0.0219,-0.0131,-0.0131,0,0,0,0,0,0,-0.0571,-0.0554,-0.0444,-0.0438,-0.0498,-0.043,-0.0418,-0.0393,-0.0332,-0.0322,-0.0357,-0.0355,-0.0271,-0.0263,-0.0256,-0.0224,-0.0222,-0.0219,-0.0217,-0.0131,-0.0131,-0.0131,0,0,0,0,0,0,-0.0574,-0.0561,-0.0448,-0.0495,-0.048,-0.0427,-0.04,-0.0392,-0.0373,-0.0321,-0.0312,-0.0347,-0.0271,-0.0261,-0.0225,-0.0221,-0.0217,-0.0214,-0.0132,-0.0131,-0.0131,-0.0162,0,0,0,0,0,0,-0.0579,-0.0563,-0.0552,-0.0495,-0.0477,-0.0417,-0.04,-0.039,-0.0366,-0.0362,-0.0309,-0.0301,-0.027,-0.0231,-0.0221,-0.0215,-0.0211,-0.0132,-0.0131,-0.0131,-0.0161,-0.0163,-0.0165,0,0,0,0,0,-0.0584,-0.0565,-0.0552,-0.0539,-0.0462,-0.0417,-0.0407,-0.0371,-0.0365,-0.0355,-0.0322,-0.0302,-0.0223,-0.0227,-0.0216,-0.0209,-0.0132,-0.0132,-0.0131,-0.0161,-0.0163,-0.0165,0,0,0,0,0,0,-0.0625,-0.0557,-0.0541,-0.0503,-0.0466,-0.0409,-0.0395,-0.0374,-0.0339,-0.0338,-0.0296,-0.0285,-0.0253,-0.0228,-0.0234,-0.0184,-0.0176,-0.0173,-0.0202,-0.0203,-0.0205,-0.0212,-0.0208,0,0,0,0,0,-0.0629,-0.0596,-0.054,-0.0512,-0.0494,-0.0448,-0.0427,-0.0402,-0.0363,-0.0347,-0.0311,-0.0276,-0.0243,-0.0222,-0.0188,-0.0158,-0.0146,-0.0148,-0.015,-0.0151,-0.015,-0.0133,-0.0133,-0.013,-0.013,-0.013,0,0,-0.0638,-0.0597,-0.0579,-0.0519,-0.0487,-0.0456,-0.0435,-0.0402,-0.0379,-0.0343,-0.0306,-0.0279,-0.0237,-0.0204,-0.0187,-0.0182,-0.0148,-0.0151,-0.0153,-0.015,-0.0132,-0.0133,-0.0133,-0.013,-0.013,-0.013,0,0,-0.0638,-0.0603,-0.0576,-0.0545,-0.0497,-0.0466,-0.046,-0.0407,-0.0387,-0.0349,-0.0322,-0.0295,-0.0239,-0.0209,-0.0187,-0.0178,-0.0159,-0.0169,-0.0177,-0.0162,-0.0162,-0.0162,-0.0159,-0.0158,-0.0168,-0.0168,-0.0168,0,-0.0655,-0.0605,-0.0565,-0.0534,-0.0509,-0.0474,-0.0447,-0.042,-0.0364,-0.0349,-0.0343,-0.0272,-0.0241,-0.0201,-0.0198,-0.0182,-0.0175,-0.0174,-0.0165,-0.0164,-0.0164,-0.0161,-0.016,-0.0169,-0.0169,-0.0169,-0.0169,0,-0.0629,-0.0595,-0.0579,-0.0525,-0.0498,-0.047,-0.0428,-0.0406,-0.0385,-0.0356,-0.0319,-0.0281,-0.024,-0.0229,-0.0208,-0.0186,-0.0184,-0.0172,-0.0162,-0.0166,-0.0162,-0.0161,-0.0171,-0.0171,-0.017,-0.017,0,0,-0.0651,-0.0575,-0.057,-0.0545,-0.049,-0.0464,-0.0435,-0.0393,-0.0376,-0.034,-0.0315,-0.0269,-0.0258,-0.0233,-0.0209,-0.0195,-0.0191,-0.0184,-0.0183,-0.0187,-0.0166,-0.0175,-0.0174,-0.0178,-0.0178,-0.0178,-0.017,0,-0.0643,-0.0586,-0.0551,-0.051,-0.0479,-0.0446,-0.0421,-0.0386,-0.0359,-0.033,-0.0301,-0.0269,-0.0256,-0.0241,-0.0225,-0.0194,-0.0186,-0.0195,-0.0157,-0.0156,-0.0168,-0.0172,-0.0182,-0.0176,-0.0168,-0.0168,-0.0168,0,-0.0626,-0.0588,-0.0544,-0.0493,-0.0479,-0.0457,-0.0416,-0.0388,-0.0349,-0.0331,-0.0303,-0.0279,-0.0249,-0.0243,-0.0202,-0.0209,-0.0192,-0.0175,-0.0173,-0.0168,-0.0162,-0.0168,-0.0173,-0.0173,-0.0165,-0.0165,-0.0165,0,-0.0646,-0.0585,-0.0551,-0.0531,-0.0471,-0.0456,-0.0431,-0.0391,-0.0369,-0.0334,-0.032,-0.0283,-0.0263,-0.0236,-0.0203,-0.0201,-0.0167,-0.0157,-0.0152,-0.0153,-0.0145,-0.0146,-0.0148,-0.0135,-0.0135,-0.0135,-0.0135,0,-0.0641,-0.0615,-0.0559,-0.0538,-0.0509,-0.0469,-0.0442,-0.0415,-0.038,-0.0355,-0.0325,-0.0302,-0.026,-0.0233,-0.0208,-0.0179,-0.017,-0.0156,-0.0149,-0.0158,-0.016,-0.0146,-0.0145,-0.0135,-0.0135,-0.0135,-0.0135,0,-0.0658,-0.0619,-0.0579,-0.0526,-0.0512,-0.0493,-0.0448,-0.0428,-0.04,-0.0368,-0.0359,-0.0315,-0.0281,-0.0246,-0.0201,-0.0184,-0.0157,-0.0148,-0.0169,-0.0166,-0.0162,-0.0163,-0.0155,-0.0153,-0.0141,-0.0141,-0.0142,0,-0.0657,-0.0636,-0.058,-0.056,-0.0535,-0.0503,-0.048,-0.0442,-0.0419,-0.0373,-0.0359,-0.0323,-0.0292,-0.024,-0.0206,-0.0172,-0.0162,-0.0162,-0.0157,-0.0167,-0.0162,-0.0164,-0.0162,-0.0163,-0.0164,-0.0164,-0.0164,0,-0.0659,-0.0641,-0.0607,-0.0567,-0.054,-0.0507,-0.0474,-0.046,-0.0415,-0.0392,-0.0356,-0.0333,-0.0286,-0.0252,-0.0214,-0.019,-0.0171,-0.0166,-0.0163,-0.0172,-0.0185,-0.0178,-0.0174,-0.0166,-0.0166,-0.0166,-0.0166,-0.0166,-0.0666,-0.0647,-0.0604,-0.0569,-0.0539,-0.0509,-0.0487,-0.0456,-0.0425,-0.0383,-0.0363,-0.0328,-0.0292,-0.0238,-0.0215,-0.0189,-0.0183,-0.0179,-0.0177,-0.0177,-0.0179,-0.019,-0.0182,-0.0182,-0.0182,-0.0182,-0.0182,0,-0.0667,-0.0639,-0.0606,-0.0559,-0.0532,-0.0514,-0.0476,-0.0455,-0.0424,-0.039,-0.036,-0.0321,-0.0288,-0.0251,-0.0216,-0.0202,-0.0192,-0.0194,-0.0195,-0.019,-0.0186,-0.0192,-0.0203,-0.0203,-0.0203,-0.0203,-0.0203,-0.0203,-0.0664,-0.063,-0.0607,-0.0559,-0.0531,-0.0495,-0.0476,-0.0448,-0.0421,-0.0378,-0.0349,-0.0325,-0.0291,-0.0254,-0.0223,-0.0213,-0.0202,-0.0207,-0.0195,-0.0192,-0.019,-0.0189,-0.0194,-0.0205,-0.0205,-0.02,-0.02,-0.02]}]]